FW9827 Weather Reports


time (UTC)temp
F
wind
direction
speed
knots
gust
knots
rain 1hr
in
rain 24hr
in
rain mn
in
humidity
%
barometer
mb
20260507134536 55 309 1.7 6.1 0.00 0.64 0.20 73 1006.8
20260507133035 55 355 2.6 7.0 0.00 0.64 0.20 73 1006.9
20260507131534 53 318 2.6 7.0 0.00 0.64 0.20 75 1007.0
20260507130040 52 342 2.6 7.8 0.00 0.64 0.20 78 1007.3
20260507124541 51 297 2.6 9.6 0.00 0.64 0.20 81 1007.2
20260507123044 50 340 2.6 9.6 0.00 0.64 0.20 87 1007.1
20260507121538 48 330 2.6 7.8 0.00 0.64 0.20 91 1007.2
20260507120036 48 301 2.6 5.2 0.00 0.64 0.20 94 1006.8
20260507114536 47 323 2.6 5.2 0.00 0.64 0.20 96 1007.1
20260507113037 46 5 0.9 2.6 0.00 0.64 0.20 96 1007.2
20260507111552 47 0 0.0 2.6 0.00 0.64 0.20 96 1007.5
20260507110040 46 348 0.9 1.7 0.00 0.64 0.20 96 1007.1
20260507104536 46 26 0.9 2.6 0.00 0.64 0.20 96 1007.3
20260507103036 46 0 0.0 1.7 0.00 0.64 0.20 96 1007.4
20260507101534 46 0 0.0 2.6 0.00 0.64 0.20 96 1007.1
20260507100042 46 0 0.9 5.2 0.00 0.64 0.20 96 1006.6
20260507094542 46 327 1.7 4.3 0.00 0.64 0.20 96 1006.9
20260507093044 46 22 1.7 9.6 0.00 0.64 0.20 96 1006.3
20260507091538 46 325 1.7 7.8 0.00 0.64 0.20 97 1006.8
20260507090043 47 47 2.6 9.6 0.00 0.64 0.20 97 1006.7
20260507084543 47 345 1.7 7.8 0.00 0.64 0.20 97 1006.6
20260507083041 47 351 2.6 7.8 0.00 0.64 0.20 97 1006.5
20260507081540 48 0 1.7 5.2 0.00 0.64 0.20 97 1006.7
20260507080051 48 338 1.7 5.2 0.00 0.64 0.20 97 1006.2
20260507074536 49 301 1.7 7.8 0.00 0.64 0.20 97 1006.5
20260507073040 49 296 2.6 7.0 0.00 0.64 0.20 97 1006.1
20260507071539 49 30 0.9 3.5 0.00 0.64 0.20 97 1005.7
20260507070050 49 0 0.9 2.6 0.00 0.64 0.20 97 1005.4
20260507064540 49 331 0.0 4.3 0.00 0.64 0.20 97 1005.4
20260507063044 49 348 1.7 7.8 0.00 0.64 0.20 97 1005.3
20260507061535 50 340 1.7 7.0 0.00 0.64 0.20 97 1005.4
20260507060041 50 278 0.9 7.8 0.01 0.64 0.20 97 1005.4
20260507054542 50 345 3.5 10.4 0.05 0.64 0.20 97 1005.1
20260507053034 51 335 3.5 10.4 0.17 0.64 0.20 97 1005.3
20260507051535 51 313 2.6 9.6 0.19 0.64 0.20 97 1005.3
20260507050043 51 336 1.7 7.0 0.19 0.63 0.19 97 1005.2
20260507044543 52 311 2.6 8.7 0.15 0.58 0.14 97 1005.5
20260507043042 51 326 1.7 7.0 0.03 0.46 0.02 97 1005.3
20260507041551 51 188 1.7 6.1 0.02 0.45 0.01 97 1004.5
20260507040034 51 248 2.6 9.6 0.01 0.44 0.00 97 1004.7
20260507034536 51 205 5.2 11.3 0.00 0.43 0.43 97 1004.7
20260507033044 50 225 4.3 13.9 0.00 0.43 0.43 97 1004.9
20260507031541 50 169 3.5 13.0 0.00 0.43 0.43 97 1004.9
20260507030041 50 219 5.2 13.0 0.00 0.43 0.43 97 1005.0
20260507024539 50 231 5.2 13.0 0.00 0.43 0.43 97 1005.3
20260507023035 50 226 5.2 15.6 0.00 0.43 0.43 97 1005.4
20260507021550 51 214 5.2 14.8 0.00 0.43 0.43 97 1005.5
20260507020042 51 220 5.2 14.8 0.01 0.43 0.43 97 1005.7
20260507014554 50 172 3.5 13.9 0.02 0.43 0.43 97 1005.8
20260507013051 50 175 2.6 13.0 0.03 0.43 0.43 97 1006.0
20260507011541 49 201 4.3 13.9 0.03 0.43 0.43 96 1006.1
20260507010045 50 198 4.3 19.1 0.02 0.42 0.42 96 1006.2
20260507004544 49 221 5.2 15.6 0.01 0.41 0.41 96 1006.3
20260507003042 49 179 5.2 20.0 0.01 0.40 0.40 96 1006.4
20260507001554 50 198 7.0 14.8 0.02 0.40 0.40 96 1006.3
20260507000038 50 107 5.2 10.4 0.03 0.40 0.40 96 1006.5
20260506234535 50 157 5.2 16.5 0.06 0.40 0.40 96 1006.7
20260506233046 50 227 4.3 15.6 0.08 0.39 0.39 96 1006.8
20260506231547 50 188 5.2 20.0 0.12 0.38 0.38 95 1006.9
20260506230040 51 205 4.3 17.4 0.15 0.37 0.37 96 1006.9
20260506224540 51 217 5.2 14.8 0.19 0.34 0.34 95 1006.8
20260506223035 51 169 5.2 14.8 0.19 0.30 0.30 95 1007.1
20260506221535 51 172 5.2 13.9 0.18 0.26 0.26 95 1007.1
20260506220035 51 191 5.2 20.9 0.15 0.22 0.22 94 1007.4
20260506214542 52 300 4.3 14.8 0.09 0.15 0.15 95 1007.5
20260506213042 52 162 4.3 20.0 0.05 0.10 0.10 94 1007.7
20260506211543 52 181 4.3 14.8 0.04 0.08 0.08 94 1007.9
20260506210038 52 163 6.1 16.5 0.04 0.06 0.06 93 1007.9
20260506204542 53 170 2.6 12.2 0.05 0.06 0.06 93 1007.8
20260506203045 54 227 3.5 16.5 0.05 0.05 0.05 93 1007.9
20260506201540 54 215 5.2 16.5 0.04 0.04 0.04 92 1008.1
20260506200058 54 223 9.6 20.0 0.02 0.02 0.02 92 1008.0
20260506194535 54 202 5.2 17.4 0.01 0.01 0.01 91 1008.1
20260506193045 54 229 6.1 13.9 0.00 0.00 0.00 90 1008.0
20260506191546 53 304 6.1 20.9 0.00 0.00 0.00 88 1007.8
20260506190042 53 192 5.2 20.9 0.00 0.00 0.00 87 1007.9
20260506184541 54 149 4.3 13.9 0.00 0.00 0.00 87 1008.1
20260506183045 54 121 4.3 15.6 0.00 0.00 0.00 86 1008.2
20260506181544 55 171 5.2 18.2 0.00 0.00 0.00 86 1008.5
20260506180049 54 156 3.5 9.6 0.00 0.00 0.00 87 1008.8
20260506174542 55 219 3.5 13.0 0.00 0.00 0.00 86 1008.8
20260506173039 55 212 3.5 11.3 0.00 0.00 0.00 86 1009.1
20260506171549 55 161 4.3 19.1 0.00 0.00 0.00 85 1009.3
20260506170037 56 144 5.2 13.0 0.00 0.00 0.00 85 1009.6
20260506164542 56 228 6.1 13.0 0.00 0.00 0.00 85 1009.9
20260506163047 57 179 6.1 14.8 0.00 0.00 0.00 84 1010.0
20260506161552 57 217 3.5 13.9 0.00 0.00 0.00 86 1010.3
20260506160042 56 220 4.3 13.9 0.00 0.00 0.00 86 1010.4
20260506154541 57 196 6.1 13.0 0.00 0.00 0.00 85 1010.7
20260506153036 57 215 7.0 14.8 0.00 0.00 0.00 84 1010.5
20260506151536 57 215 6.1 13.9 0.00 0.00 0.00 85 1010.3
20260506150044 57 223 4.3 13.9 0.00 0.00 0.00 85 1010.1
20260506144540 57 200 4.3 13.9 0.00 0.00 0.00 86 1010.1
20260506143039 55 207 7.8 15.6 0.00 0.00 0.00 87 1010.6
20260506141533 55 236 7.0 16.5 0.00 0.00 0.00 87 1010.9
20260506140040 55 207 6.1 14.8 0.00 0.00 0.00 88 1010.7